Weather History for Council Bluffs, IA

Change the Weather History Date:

Saturday, January 12, 2013

  Actual Average Record
Temperature  
Mean Temperature 20 °F -  
Max Temperature 28 °F 31 °F 53 °F (2006)
Min Temperature 12 °F 16 °F 1 °F (1998)
Degree Days  
Heating Degree Days 45    
Moisture  
Dew Point 9 °F    
Average Humidity 63    
Maximum Humidity 80    
Minimum Humidity 54    
Precipitation  
Precipitation 0.00 in - - ()
Sea Level Pressure  
Sea Level Pressure 30.00 in    
Wind  
Wind Speed 17 mph (NW)    
Max Wind Speed 24 mph    
Max Gust Speed 36 mph    
Visibility 10 miles    
Events Rain , Snow    
Averages and records for this station are not official NWS values.
T = Trace of Precipitation, MM = Missing Value Source: NWS Daily Summary

Daily Weather History Graph

Daily Weather History Graph

Search for Another Location

Airport:

Trip Planner

Search our weather history database for the weather conditions in past years. The results will help you decide how hot, cold, wet, or windy it might be!

Date:

Astronomy

Jan. 12, 2013 Rise Set
Actual Time 7:47 AM CST 5:15 PM CST
Civil Twilight 7:16 AM CST 5:46 PM CST
Nautical Twilight 6:42 AM CST 6:20 PM CST
Astronomical Twilight 6:09 AM CST 6:53 PM CST
Moon 8:06 AM CST (1/12) 6:47 PM CST (1/12)
Length of Visible Light 10h 29m
Length of Day
9h 28m
New Moon, 1% of the Moon is Illuminated
Jan 12
New Moon
Jan 18
First Quarter
Jan 26
Full
Feb 3
Last Quarter
Feb 10
New

Hourly Weather History & Observations

Time (CST) Temp. Windchill Dew Point Humidity Pressure Visibility Wind Dir Wind Speed Gust Speed Precip Events Conditions
12:15 AM 28.4 °F 14.7 °F 23.0 °F 80% 29.72 in 10.0 mi West 21.9 mph 34.5 mph N/A   Overcast
12:35 AM 26.6 °F 11.7 °F 19.4 °F 74% 29.74 in 10.0 mi West 24.2 mph 29.9 mph N/A   Overcast
12:55 AM 26.6 °F 14.3 °F 17.6 °F 69% 29.76 in 10.0 mi WNW 16.1 mph 25.3 mph N/A   Overcast
1:15 AM 24.8 °F 10.0 °F 15.8 °F 69% 29.77 in 10.0 mi WNW 21.9 mph 32.2 mph N/A   Mostly Cloudy
1:35 AM 24.8 °F 9.3 °F 15.8 °F 69% 29.80 in 10.0 mi West 24.2 mph - N/A   Mostly Cloudy
1:55 AM 23.0 °F 7.6 °F 14.0 °F 68% 29.82 in 10.0 mi WNW 21.9 mph 34.5 mph N/A   Mostly Cloudy
2:15 AM 23.0 °F 8.3 °F 12.2 °F 63% 29.84 in 10.0 mi WNW 19.6 mph 35.7 mph N/A   Partly Cloudy
2:35 AM 23.0 °F 11.1 °F 12.2 °F 63% 29.86 in 10.0 mi NW 12.7 mph 25.3 mph N/A   Mostly Cloudy
2:55 AM 23.0 °F 8.7 °F 14.0 °F 68% 29.86 in 10.0 mi WNW 18.4 mph 32.2 mph N/A   Overcast
3:15 AM 21.2 °F 4.9 °F 10.4 °F 63% 29.88 in 10.0 mi WNW 23.0 mph 33.4 mph N/A   Scattered Clouds
3:35 AM 21.2 °F 7.3 °F 10.4 °F 63% 29.90 in 10.0 mi WNW 16.1 mph 23.0 mph N/A   Clear
3:55 AM 21.2 °F 6.8 °F 12.2 °F 68% 29.90 in 10.0 mi WNW 17.3 mph - N/A   Clear
4:15 AM 21.2 °F 8.3 °F 12.2 °F 68% 29.91 in 10.0 mi WNW 13.8 mph - N/A   Scattered Clouds
4:35 AM 21.2 °F 7.3 °F 10.4 °F 63% 29.91 in 10.0 mi WNW 16.1 mph 24.2 mph N/A   Partly Cloudy
4:55 AM 21.2 °F 8.3 °F 10.4 °F 63% 29.94 in 10.0 mi West 13.8 mph - N/A   Scattered Clouds
5:15 AM 21.2 °F 8.9 °F 12.2 °F 68% 29.94 in 10.0 mi WNW 12.7 mph - N/A   Mostly Cloudy
5:35 AM 21.2 °F 7.8 °F 10.4 °F 63% 29.95 in 10.0 mi West 15.0 mph 26.5 mph N/A   Partly Cloudy
5:55 AM 19.4 °F 6.0 °F 8.6 °F 63% 29.95 in 10.0 mi WNW 13.8 mph - N/A   Clear
6:15 AM 19.4 °F 6.0 °F 10.4 °F 68% 29.96 in 10.0 mi WNW 13.8 mph - N/A   Clear
6:35 AM 19.4 °F 5.5 °F 8.6 °F 63% 29.97 in 10.0 mi WNW 15.0 mph - N/A   Clear
6:55 AM 19.4 °F 5.5 °F 8.6 °F 63% 29.98 in 10.0 mi WNW 15.0 mph 20.7 mph N/A   Clear
7:15 AM 19.4 °F 9.5 °F 8.6 °F 63% 29.98 in 10.0 mi WNW 8.1 mph - N/A   Clear
7:35 AM 19.4 °F 8.6 °F 8.6 °F 63% 30.01 in 10.0 mi West 9.2 mph 16.1 mph N/A   Partly Cloudy
7:55 AM 19.4 °F 7.9 °F 8.6 °F 63% 30.01 in 10.0 mi WNW 10.4 mph - N/A   Mostly Cloudy
8:15 AM 19.4 °F 8.6 °F 10.4 °F 68% 30.01 in 10.0 mi WNW 9.2 mph - N/A   Mostly Cloudy
8:35 AM 19.4 °F 5.5 °F 10.4 °F 68% 30.02 in 10.0 mi West 15.0 mph - N/A   Mostly Cloudy
8:55 AM 19.4 °F 4.5 °F 8.6 °F 63% 30.03 in 10.0 mi WNW 17.3 mph - N/A   Partly Cloudy
9:15 AM 19.4 °F 6.0 °F 8.6 °F 63% 30.04 in 10.0 mi WNW 13.8 mph 20.7 mph N/A   Clear
9:35 AM 19.4 °F 4.5 °F 8.6 °F 63% 30.05 in 10.0 mi West 17.3 mph - N/A   Scattered Clouds
9:55 AM 19.4 °F 5.5 °F 8.6 °F 63% 30.05 in 10.0 mi WNW 15.0 mph - N/A   Scattered Clouds
10:15 AM 19.4 °F 6.0 °F 8.6 °F 63% 30.05 in 10.0 mi WNW 13.8 mph - N/A   Clear
10:35 AM 19.4 °F 5.0 °F 6.8 °F 58% 30.06 in 10.0 mi West 16.1 mph 23.0 mph N/A   Partly Cloudy
10:55 AM 19.4 °F 4.5 °F 8.6 °F 63% 30.08 in 10.0 mi WNW 17.3 mph - N/A   Clear
11:15 AM 19.4 °F 5.5 °F 5.0 °F 54% 30.07 in 10.0 mi West 15.0 mph 21.9 mph N/A   Clear
11:55 AM 21.2 °F 6.8 °F 6.8 °F 54% 30.05 in 10.0 mi WNW 17.3 mph 23.0 mph N/A   Clear
12:15 PM 21.2 °F 6.4 °F 6.8 °F 54% 30.03 in 10.0 mi WNW 18.4 mph 25.3 mph N/A   Clear
12:35 PM 21.2 °F 7.3 °F 8.6 °F 58% 30.04 in 10.0 mi WNW 16.1 mph 23.0 mph N/A   Clear
12:55 PM 21.2 °F 10.1 °F 6.8 °F 54% 30.03 in 10.0 mi WNW 10.4 mph 21.9 mph N/A   Clear
1:15 PM 21.2 °F 7.3 °F 8.6 °F 58% 30.02 in 10.0 mi WNW 16.1 mph - N/A   Partly Cloudy
1:35 PM 21.2 °F 6.4 °F 8.6 °F 58% 30.01 in 10.0 mi WNW 18.4 mph 24.2 mph N/A   Clear
1:55 PM 21.2 °F 8.9 °F 8.6 °F 58% 30.03 in 10.0 mi WNW 12.7 mph 20.7 mph N/A   Scattered Clouds
2:15 PM 21.2 °F 7.3 °F 6.8 °F 54% 30.02 in 10.0 mi NW 16.1 mph 21.9 mph N/A   Partly Cloudy
2:35 PM 21.2 °F 6.4 °F 6.8 °F 54% 30.03 in 10.0 mi NW 18.4 mph - N/A   Clear
2:55 PM 21.2 °F 7.8 °F 6.8 °F 54% 30.03 in 10.0 mi WNW 15.0 mph - N/A   Partly Cloudy
3:15 PM 21.2 °F 8.9 °F 8.6 °F 58% 30.04 in 10.0 mi NW 12.7 mph - N/A   Partly Cloudy
3:35 PM 21.2 °F 9.5 °F 8.6 °F 58% 30.03 in 10.0 mi NW 11.5 mph 19.6 mph N/A   Partly Cloudy
3:55 PM 21.2 °F 9.5 °F 6.8 °F 54% 30.06 in 10.0 mi NW 11.5 mph - N/A   Mostly Cloudy
4:15 PM 19.4 °F 7.9 °F 6.8 °F 58% 30.04 in 10.0 mi NNW 10.4 mph 17.3 mph N/A   Overcast
4:35 PM 19.4 °F 5.0 °F 6.8 °F 58% 30.04 in 10.0 mi NW 16.1 mph - N/A   Overcast
4:55 PM 19.4 °F 7.9 °F 8.6 °F 63% 30.05 in 10.0 mi NNW 10.4 mph - N/A   Overcast
5:15 PM 19.4 °F 6.6 °F 6.8 °F 58% 30.07 in 10.0 mi NNW 12.7 mph - N/A   Overcast
5:35 PM 17.6 °F 3.2 °F 6.8 °F 63% 30.07 in 10.0 mi NW 15.0 mph - N/A   Overcast
5:55 PM 17.6 °F 5.0 °F 6.8 °F 63% 30.09 in 10.0 mi NW 11.5 mph - N/A   Overcast
6:15 PM 17.6 °F 6.4 °F 6.8 °F 63% 30.10 in 10.0 mi NNW 9.2 mph 16.1 mph N/A   Overcast
6:35 PM 17.6 °F 5.0 °F 6.8 °F 63% 30.12 in 10.0 mi NW 11.5 mph - N/A   Overcast
6:55 PM 17.6 °F 5.7 °F 6.8 °F 63% 30.11 in 10.0 mi NNW 10.4 mph - N/A   Overcast
7:15 PM 17.6 °F 5.0 °F 6.8 °F 63% 30.11 in 10.0 mi NNW 11.5 mph - N/A   Overcast
7:35 PM 17.6 °F 3.7 °F 6.8 °F 63% 30.10 in 9.0 mi NNW 13.8 mph - N/A Snow Light Snow
7:55 PM 15.8 °F 2.1 °F 6.8 °F 68% 30.08 in 10.0 mi NNW 12.7 mph 19.6 mph N/A Rain Light Freezing Rain
8:15 PM 15.8 °F 0.3 °F 5.0 °F 62% 30.10 in 10.0 mi NW 16.1 mph - N/A   Mostly Cloudy
8:35 PM 15.8 °F 1.4 °F 5.0 °F 62% 30.09 in 10.0 mi NNW 13.8 mph 19.6 mph N/A   Mostly Cloudy
8:55 PM 14.0 °F 0.5 °F 5.0 °F 67% 30.10 in 10.0 mi NNW 11.5 mph - N/A   Mostly Cloudy
9:15 PM 14.0 °F -0.2 °F 5.0 °F 67% 30.09 in 10.0 mi NNW 12.7 mph - N/A   Scattered Clouds
9:35 PM 14.0 °F 0.5 °F 3.2 °F 62% 30.09 in 10.0 mi NW 11.5 mph 17.3 mph N/A   Mostly Cloudy
9:55 PM 14.0 °F -0.2 °F 3.2 °F 62% 30.09 in 10.0 mi NNW 12.7 mph - N/A   Overcast
10:15 PM 14.0 °F 0.5 °F 5.0 °F 67% 30.09 in 10.0 mi NNW 11.5 mph 18.4 mph N/A   Overcast
10:35 PM 14.0 °F -0.2 °F 5.0 °F 67% 30.10 in 10.0 mi NNW 12.7 mph 18.4 mph N/A Snow Light Snow
10:55 PM 14.0 °F -0.8 °F 3.2 °F 62% 30.08 in 10.0 mi NW 13.8 mph 21.9 mph N/A   Overcast
11:15 PM 12.2 °F -2.5 °F 5.0 °F 73% 30.09 in 10.0 mi NW 12.7 mph - N/A   Overcast
11:35 PM 12.2 °F -2.5 °F 3.2 °F 67% 30.09 in 10.0 mi NW 12.7 mph 18.4 mph N/A   Overcast
11:55 PM 12.2 °F -3.7 °F 3.2 °F 67% 30.09 in 10.0 mi NW 15.0 mph - N/A   Overcast